Weather History for Cocoa Beach, FL

Change the Weather History Date:

Monday, December 9, 2013

  Actual Average Record
Temperature  
Mean Temperature 76 °F -  
Max Temperature 81 °F 71 °F 84 °F (2004)
Min Temperature 71 °F 59 °F 49 °F (2010)
Cooling Degree Days 11    
Growing Degree Days 26 (Base 50)    
Moisture  
Dew Point 69 °F    
Average Humidity 83    
Maximum Humidity 94    
Minimum Humidity 71    
Precipitation  
Precipitation 0.00 in - - ()
Sea Level Pressure  
Sea Level Pressure 30.18 in    
Wind  
Wind Speed 5 mph (SSE)    
Max Wind Speed 14 mph    
Max Gust Speed -    
Visibility 8 miles    
Events      
Averages and records for this station are not official NWS values.
T = Trace of Precipitation, MM = Missing Value Source: NWS Daily Summary

Daily Weather History Graph

Daily Weather History Graph

Search for Another Location

Airport:

Trip Planner

Search our weather history database for the weather conditions in past years. The results will help you decide how hot, cold, wet, or windy it might be!

Date:

Astronomy

Dec. 09, 2013 Rise Set
Actual Time 7:02 AM EST 5:26 PM EST
Civil Twilight 6:37 AM EST 5:52 PM EST
Nautical Twilight 6:08 AM EST 6:21 PM EST
Astronomical Twilight 5:39 AM EST 6:50 PM EST
Moon 12:24 PM EST (12/9) No Moon Set
Length of Visible Light 11h 15m
Length of Day
10h 23m
Waxing Crescent, 51% of the Moon is Illuminated
Dec 9
Waxing Crescent
Dec 17
Full
Dec 25
Last Quarter
Jan 1
New
Jan 7
First Quarter

Hourly Weather History & Observations

Time (EST) Temp. Heat Index Dew Point Humidity Pressure Visibility Wind Dir Wind Speed Gust Speed Precip Events Conditions
12:58 AM 72.7 °F - 70.3 °F 92% 30.19 in 8.0 mi SE 4.6 mph - N/A   Partly Cloudy
1:23 AM 73.4 °F - 69.8 °F 88% 30.18 in 10.0 mi South 3.5 mph - N/A   Clear
1:58 AM 72.3 °F - 69.8 °F 92% 30.19 in 10.0 mi South 3.5 mph - N/A   Clear
2:43 AM 71.6 °F - 66.2 °F 83% 30.17 in 8.0 mi SSE 2.3 mph - N/A   Partly Cloudy
2:48 AM 71.6 °F - 68.0 °F 88% 30.17 in 4.0 mi SSE 2.3 mph - N/A   Haze
2:58 AM 71.6 °F - 66.2 °F 83% 30.17 in 3.0 mi SSE 2.3 mph - N/A   Haze
3:08 AM 71.6 °F - 64.4 °F 78% 30.17 in 2.5 mi ESE 2.3 mph - N/A   Haze
3:18 AM 71.6 °F - 66.2 °F 83% 30.17 in 3.0 mi SSE 2.3 mph - N/A   Haze
3:53 AM 71.6 °F - 68.0 °F 88% 30.17 in 5.0 mi South 3.5 mph - N/A   Clear
3:58 AM 71.8 °F - 68.4 °F 89% 30.19 in 6.0 mi SSW 4.6 mph - N/A   Clear
4:33 AM 71.6 °F - 68.0 °F 88% 30.17 in 10.0 mi SSW 3.5 mph - N/A   Partly Cloudy
4:48 AM 71.6 °F - 68.0 °F 88% 30.17 in 9.0 mi SSW 2.3 mph - N/A   Partly Cloudy
4:58 AM 72.3 °F - 69.1 °F 89% 30.19 in 10.0 mi SSW 3.5 mph - N/A   Partly Cloudy
5:58 AM 71.6 °F - 67.8 °F 88% 30.19 in 10.0 mi Calm Calm - N/A   Scattered Clouds
6:58 AM 72.5 °F - 68.5 °F 87% 30.19 in 4.0 mi Calm Calm - N/A   Partly Cloudy
7:03 AM 71.6 °F - 69.8 °F 94% 30.19 in 1.8 mi NE 1.2 mph - N/A   Partly Cloudy
7:13 AM 71.6 °F - 68.0 °F 88% 30.19 in 2.5 mi ESE 2.3 mph - N/A   Partly Cloudy
7:18 AM 71.6 °F - 68.0 °F 88% 30.19 in 4.0 mi Calm Calm - N/A   Clear
7:58 AM 71.8 °F - 68.4 °F 89% 30.22 in 3.0 mi East 2.3 mph - N/A   Clear
8:58 AM 75.0 °F - 71.2 °F 88% 30.22 in 10.0 mi ESE 2.3 mph - N/A   Clear
9:58 AM 76.6 °F - 70.2 °F 80% 30.22 in 10.0 mi ESE 4.6 mph - N/A   Clear
10:58 AM 79.0 °F - 70.2 °F 74% 30.22 in 10.0 mi SE 9.2 mph - N/A   Clear
11:58 AM 79.7 °F - 71.1 °F 75% 30.19 in 10.0 mi SE 9.2 mph - N/A   Clear
12:58 PM 81.5 °F 85.7 °F 71.4 °F 71% 30.17 in 10.0 mi SE 12.7 mph - N/A   Clear
1:58 PM 81.1 °F 85.0 °F 70.9 °F 71% 30.14 in 10.0 mi SSE 13.8 mph - N/A   Clear
2:58 PM 79.5 °F - 70.3 °F 73% 30.14 in 10.0 mi SSE 12.7 mph - N/A   Clear
3:58 PM 77.9 °F - 69.8 °F 76% 30.14 in 10.0 mi SSE 10.4 mph - N/A   Clear
4:58 PM 76.8 °F - 69.3 °F 77% 30.14 in 10.0 mi SSE 12.7 mph - N/A   Clear
5:58 PM 75.9 °F - 68.9 °F 79% 30.14 in 10.0 mi SSE 11.5 mph - N/A   Clear
6:58 PM 75.7 °F - 69.3 °F 80% 30.16 in 10.0 mi SSE 11.5 mph - N/A   Clear
7:58 PM 74.8 °F - 70.3 °F 86% 30.17 in 10.0 mi SSE 10.4 mph - N/A   Clear
8:58 PM 75.0 °F - 68.2 °F 79% 30.17 in 9.0 mi South 12.7 mph - N/A   Clear
9:08 PM 75.2 °F - 68.0 °F 78% 30.15 in 10.0 mi South 12.7 mph - N/A   Clear
9:58 PM 74.8 °F - 67.6 °F 78% 30.17 in 10.0 mi South 11.5 mph - N/A   Clear
10:58 PM 73.2 °F - 66.4 °F 79% 30.16 in 10.0 mi South 10.4 mph - N/A   Clear
11:58 PM 71.6 °F - 65.1 °F 80% 30.16 in 10.0 mi South 11.5 mph - N/A   Clear